Weather History for KBWG - June, 2014

Change the Weather History Date:

Wednesday, June 25, 2014

  Actual Average Record
Temperature  
Mean Temperature 79 °F 77 °F  
Max Temperature 88 °F 88 °F 104 °F (1914)
Min Temperature 70 °F 66 °F 50 °F (1979)
Degree Days  
Heating Degree Days 0 0  
Month to date heating degree days 0 3  
Since 1 June heating degree days 0 3  
Since 1 July heating degree days 4533 4046  
Cooling Degree Days 14 12  
Month to date cooling degree days 273 241  
Year to date cooling degree days 470 394  
Since 1 June cooling degree days 273 241  
Growing Degree Days 29 (Base 50)    
Moisture  
Dew Point 66 °F    
Average Humidity 71    
Maximum Humidity 91    
Minimum Humidity 41    
Precipitation  
Precipitation 0.00 in 0.14 in 1.48 in (1991)
Month to date precipitation 1.58 3.55  
Year to date precipitation 22.16 25.48  
Snow  
Snow 0.00 in 0.00 in 0.00 in ()
Month to date snowfall 0.0 0.0  
Since 1 June snowfall 0.0 0.0  
Since 1 July snowfall 10.4 9.1  
Snow Depth 0.00 in    
Sea Level Pressure  
Sea Level Pressure 29.99 in    
Wind  
Wind Speed 6 mph (West)    
Max Wind Speed 15 mph    
Max Gust Speed 21 mph    
Visibility 10 miles    
Events      
T = Trace of Precipitation, MM = Missing Value Source: NWS Daily Summary

Daily Weather History Graph

Daily Weather History Graph

Search for Another Location

Airport or City:

Trip Planner

Search our weather history database for the weather conditions in past years. The results will help you decide how hot, cold, wet, or windy it might be!

Date:

Astronomy

Jun. 25, 2014 Rise Set
Actual Time 5:27 AM CDT 8:09 PM CDT
Civil Twilight 4:56 AM CDT 8:39 PM CDT
Nautical Twilight 4:18 AM CDT 9:18 PM CDT
Astronomical Twilight 3:35 AM CDT 10:01 PM CDT
Moon 4:16 AM CDT (6/25) 6:42 PM CDT (6/25)
Length of Visible Light 15h 43m
Length of Day
14h 41m
Waning Crescent, 3% of the Moon is Illuminated
Jun 25
Waning Crescent
Jun 27
New
Jul 5
First Quarter
Jul 12
Full
Jul 18
Last Quarter

Hourly Weather History & Observations

Time (CDT) Temp. Heat Index Dew Point Humidity Pressure Visibility Wind Dir Wind Speed Gust Speed Precip Events Conditions
12:15 AM 72.0 °F - 69.1 °F 91% 29.95 in 10.0 mi West 5.8 mph - N/A   Mostly Cloudy
12:53 AM 72.0 °F - 69.1 °F 91% 29.94 in 10.0 mi WSW 5.8 mph - N/A   Scattered Clouds
1:53 AM 71.1 °F - 68.0 °F 90% 29.94 in 10.0 mi West 4.6 mph - N/A   Partly Cloudy
2:53 AM 71.1 °F - 68.0 °F 90% 29.94 in 10.0 mi WSW 4.6 mph - N/A   Mostly Cloudy
3:14 AM 72.0 °F - 69.1 °F 91% 29.96 in 10.0 mi WSW 3.5 mph - N/A   Overcast
3:33 AM 71.1 °F - 68.0 °F 90% 29.96 in 10.0 mi WSW 4.6 mph - N/A   Mostly Cloudy
3:53 AM 71.1 °F - 68.0 °F 90% 29.96 in 10.0 mi WSW 3.5 mph - N/A   Scattered Clouds
4:53 AM 71.1 °F - 68.0 °F 90% 29.96 in 10.0 mi WSW 5.8 mph - N/A   Clear
5:53 AM 71.1 °F - 68.0 °F 90% 29.98 in 10.0 mi West 4.6 mph - N/A   Clear
6:53 AM 73.0 °F - 69.1 °F 87% 30.00 in 10.0 mi WSW 5.8 mph - N/A   Partly Cloudy
7:53 AM 75.0 °F - 69.1 °F 82% 30.01 in 10.0 mi WNW 8.1 mph - N/A   Clear
8:53 AM 78.1 °F - 68.0 °F 71% 30.03 in 10.0 mi Variable 5.8 mph - N/A   Clear
9:53 AM 81.0 °F 83.8 °F 68.0 °F 65% 30.03 in 10.0 mi West 5.8 mph - N/A   Clear
10:53 AM 82.9 °F 84.6 °F 64.9 °F 54% 30.03 in 10.0 mi WNW 9.2 mph - N/A   Partly Cloudy
11:53 AM 84.9 °F 85.9 °F 63.0 °F 48% 30.03 in 10.0 mi West 10.4 mph - N/A   Partly Cloudy
12:53 PM 86.0 °F 86.1 °F 61.0 °F 43% 30.02 in 10.0 mi WNW 10.4 mph 17.3 mph N/A   Partly Cloudy
1:53 PM 87.1 °F 87.0 °F 61.0 °F 41% 30.01 in 10.0 mi West 6.9 mph 18.4 mph N/A   Partly Cloudy
3:53 PM 87.1 °F 87.5 °F 62.1 °F 43% 29.99 in 10.0 mi West 10.4 mph - N/A   Clear
4:53 PM 86.0 °F 86.3 °F 62.1 °F 44% 29.98 in 10.0 mi WNW 6.9 mph - N/A   Clear
5:53 PM 84.0 °F 84.5 °F 62.1 °F 47% 29.97 in 10.0 mi WNW 6.9 mph - N/A   Clear
6:53 PM 84.0 °F 84.5 °F 62.1 °F 47% 29.97 in 10.0 mi WNW 8.1 mph - N/A   Clear
9:53 PM 77.0 °F - 64.9 °F 66% 30.03 in 10.0 mi WSW 4.6 mph - N/A   Clear
10:53 PM 73.9 °F - 64.9 °F 73% 30.03 in 10.0 mi Calm Calm - N/A   Clear
11:53 PM 73.9 °F - 64.9 °F 73% 30.03 in 10.0 mi Calm Calm - N/A   Clear